Fremont, NE

7:58 PM CDT on April 25, 2018 (GMT -0500)
Fremont Municipal

Weather History for KFET - July, 2013

Change the Weather History Date:

Thursday, July 25, 2013

  Actual Average Record
Temperature  
Mean Temperature 76 °F -  
Max Temperature 84 °F 87 °F 103 °F (1952)
Min Temperature 69 °F 65 °F 51 °F (2004)
Cooling Degree Days 12    
Growing Degree Days 26 (Base 50)    
Moisture  
Dew Point 66 °F    
Average Humidity 75    
Maximum Humidity 99    
Minimum Humidity 53    
Precipitation  
Precipitation 0.07 in - - ()
Sea Level Pressure  
Sea Level Pressure 30.03 in    
Wind  
Wind Speed 7 mph (South)    
Max Wind Speed 15 mph    
Max Gust Speed 23 mph    
Visibility 10 miles    
Events Rain , Thunderstorm    
Averages and records for this station are not official NWS values.
T = Trace of Precipitation, MM = Missing Value Source: NWS Daily Summary

Daily Weather History Graph

Daily Weather History Graph

Search for Another Location

Airport or City:

Astronomy

Jul. 25, 2013 Rise Set
Actual Time 6:14 AM CDT 8:50 PM CDT
Civil Twilight 5:42 AM CDT 9:21 PM CDT
Nautical Twilight 5:02 AM CDT 10:01 PM CDT
Astronomical Twilight 4:17 AM CDT 10:46 PM CDT
Moon 10:27 PM CDT (7/25) 9:48 AM CDT (7/25)
Length of Visible Light 15h 39m
Length of Day
14h 35m
Waning Gibbous, 88% of the Moon is Illuminated
Jul 25
Waning Gibbous
Jul 29
Last Quarter
Aug 6
New
Aug 14
First Quarter
Aug 20
Full

Hourly Weather History & Observations

Time (CDT) Temp. Heat Index Dew Point Humidity Pressure Visibility Wind Dir Wind Speed Gust Speed Precip Events Conditions
12:15 AM 71.6 °F - 63.9 °F 76% 30.05 in 10.0 mi SSE 4.6 mph - N/A   Clear
12:35 AM 71.6 °F - 63.7 °F 76% 30.05 in 10.0 mi SSE 4.6 mph - N/A   Clear
12:55 AM 72.0 °F - 64.2 °F 77% 30.05 in 10.0 mi SSE 5.8 mph - N/A   Clear
1:15 AM 71.6 °F - 63.7 °F 76% 30.06 in 10.0 mi SSE 4.6 mph - N/A   Clear
1:35 AM 71.8 °F - 63.7 °F 76% 30.06 in 10.0 mi South 6.9 mph - N/A   Scattered Clouds
1:55 AM 72.1 °F - 63.5 °F 74% 30.06 in 10.0 mi SSE 6.9 mph - N/A   Scattered Clouds
2:15 AM 72.7 °F - 63.5 °F 73% 30.05 in 10.0 mi SSE 6.9 mph - N/A   Mostly Cloudy
2:35 AM 72.5 °F - 63.1 °F 72% 30.05 in 10.0 mi SSE 8.1 mph - N/A   Mostly Cloudy
2:55 AM 72.0 °F - 63.5 °F 75% 30.04 in 10.0 mi SSE 5.8 mph - N/A   Scattered Clouds
3:15 AM 72.0 °F - 63.3 °F 74% 30.05 in 10.0 mi SSE 5.8 mph - N/A   Mostly Cloudy
3:35 AM 71.6 °F - 63.5 °F 76% 30.05 in 10.0 mi SSE 5.8 mph - N/A   Scattered Clouds
3:55 AM 71.2 °F - 63.5 °F 76% 30.05 in 10.0 mi SSE 4.6 mph - N/A   Scattered Clouds
4:15 AM 71.8 °F - 63.3 °F 75% 30.05 in 10.0 mi South 8.1 mph - N/A   Mostly Cloudy
4:35 AM 71.8 °F - 63.5 °F 75% 30.04 in 10.0 mi SSE 8.1 mph - N/A   Mostly Cloudy
4:55 AM 71.1 °F - 63.5 °F 77% 30.05 in 10.0 mi SSE 4.6 mph - N/A   Mostly Cloudy
5:15 AM 71.6 °F - 63.3 °F 75% 30.05 in 10.0 mi SSE 3.5 mph - N/A   Overcast
5:35 AM 70.7 °F - 63.5 °F 78% 30.05 in 10.0 mi SSE 3.5 mph - N/A   Scattered Clouds
5:55 AM 70.0 °F - 63.5 °F 80% 30.04 in 10.0 mi SSE 4.6 mph - N/A   Scattered Clouds
6:15 AM 70.2 °F - 63.5 °F 79% 30.04 in 10.0 mi SE 5.8 mph - N/A   Mostly Cloudy
6:35 AM 70.3 °F - 63.5 °F 79% 30.04 in 10.0 mi SE 5.8 mph - N/A   Mostly Cloudy
6:55 AM 70.2 °F - 63.5 °F 79% 30.04 in 10.0 mi SE 4.6 mph - N/A   Mostly Cloudy
7:15 AM 69.8 °F - 63.7 °F 81% 30.04 in 10.0 mi SE 5.8 mph - N/A   Scattered Clouds
7:35 AM 70.3 °F - 63.7 °F 79% 30.05 in 10.0 mi SSE 6.9 mph - N/A   Clear
7:55 AM 71.8 °F - 63.5 °F 75% 30.05 in 10.0 mi SSE 6.9 mph - N/A   Scattered Clouds
8:15 AM 73.4 °F - 63.0 °F 70% 30.04 in 10.0 mi South 10.4 mph - N/A   Scattered Clouds
8:35 AM 73.8 °F - 63.3 °F 70% 30.04 in 10.0 mi South 10.4 mph - N/A   Scattered Clouds
8:55 AM 75.6 °F - 63.9 °F 67% 30.04 in 10.0 mi South 8.1 mph - N/A   Clear
9:15 AM 77.0 °F - 63.7 °F 63% 30.04 in 10.0 mi South 11.5 mph - N/A   Clear
9:35 AM 77.7 °F - 64.4 °F 63% 30.04 in 10.0 mi South 12.7 mph 19.6 mph N/A   Scattered Clouds
9:55 AM 76.8 °F - 65.5 °F 68% 30.03 in 10.0 mi South 10.4 mph - N/A   Scattered Clouds
10:15 AM 75.9 °F - 65.5 °F 70% 30.03 in 10.0 mi South 8.1 mph - N/A   Scattered Clouds
10:35 AM 78.1 °F - 66.7 °F 68% 30.03 in 10.0 mi South 11.5 mph - N/A   Scattered Clouds
10:55 AM 76.8 °F - 66.7 °F 71% 30.02 in 10.0 mi South 8.1 mph - N/A Thunderstorm Mostly Cloudy
11:15 AM 80.1 °F 82.6 °F 67.8 °F 66% 30.03 in 10.0 mi Calm Calm - N/A   Scattered Clouds
11:35 AM 81.9 °F 84.6 °F 67.6 °F 62% 30.02 in 10.0 mi SSE 3.5 mph - N/A   Scattered Clouds
11:55 AM 82.0 °F 85.3 °F 68.7 °F 64% 30.02 in 10.0 mi South 10.4 mph - N/A   Clear
12:15 PM 78.1 °F - 67.6 °F 70% 30.02 in 10.0 mi South 11.5 mph - N/A   Scattered Clouds
12:35 PM 76.8 °F - 67.5 °F 73% 30.03 in 10.0 mi South 9.2 mph - N/A   Mostly Cloudy
12:55 PM 76.1 °F - 67.6 °F 75% 30.02 in 10.0 mi South 8.1 mph - N/A   Overcast
1:15 PM 75.9 °F - 68.2 °F 77% 30.03 in 10.0 mi South 8.1 mph - N/A   Overcast
1:35 PM 76.5 °F - 68.4 °F 76% 30.03 in 10.0 mi South 9.2 mph - N/A   Overcast
1:55 PM 78.3 °F - 69.1 °F 73% 30.03 in 10.0 mi South 8.1 mph - N/A   Overcast
2:15 PM 80.2 °F 83.0 °F 68.2 °F 67% 30.03 in 10.0 mi South 9.2 mph - N/A   Mostly Cloudy
2:35 PM 80.2 °F 82.6 °F 66.9 °F 64% 30.01 in 10.0 mi South 8.1 mph - N/A   Mostly Cloudy
2:55 PM 81.3 °F 83.6 °F 66.9 °F 61% 30.01 in 10.0 mi South 10.4 mph 16.1 mph N/A   Mostly Cloudy
3:15 PM 82.9 °F 85.6 °F 67.3 °F 59% 30.01 in 10.0 mi SSW 12.7 mph 18.4 mph N/A   Scattered Clouds
3:35 PM 83.5 °F 86.2 °F 67.3 °F 58% 30.00 in 10.0 mi South 12.7 mph 18.4 mph N/A   Scattered Clouds
3:55 PM 83.8 °F 86.5 °F 67.1 °F 57% 30.00 in 10.0 mi South 12.7 mph - N/A   Clear
4:15 PM 83.1 °F 85.0 °F 65.5 °F 55% 30.00 in 10.0 mi SSW 13.8 mph 19.6 mph N/A   Clear
4:35 PM 84.0 °F 86.0 °F 65.5 °F 54% 29.99 in 10.0 mi South 13.8 mph - N/A   Clear
4:55 PM 83.8 °F 86.0 °F 65.8 °F 55% 29.99 in 10.0 mi South 13.8 mph 23.0 mph N/A   Clear
5:15 PM 82.8 °F 84.2 °F 64.2 °F 53% 29.99 in 10.0 mi South 15.0 mph 20.7 mph N/A   Clear
5:35 PM 80.2 °F 82.1 °F 65.3 °F 60% 30.00 in 10.0 mi South 11.5 mph - N/A   Mostly Cloudy
5:55 PM 79.0 °F - 65.1 °F 62% 30.01 in 10.0 mi South 10.4 mph - N/A   Overcast
6:15 PM 77.5 °F - 67.6 °F 71% 30.00 in 10.0 mi South 10.4 mph - N/A   Overcast
6:35 PM 77.2 °F - 68.0 °F 73% 29.99 in 10.0 mi South 11.5 mph 17.3 mph N/A   Scattered Clouds
6:55 PM 77.4 °F - 67.1 °F 71% 29.99 in 10.0 mi South 8.1 mph - N/A   Clear
7:15 PM 77.2 °F - 66.0 °F 68% 30.01 in 10.0 mi SSW 9.2 mph - N/A Rain Light Rain
7:35 PM 77.0 °F - 64.4 °F 65% 30.01 in 10.0 mi SSW 11.5 mph 17.3 mph N/A Rain Light Rain
7:55 PM 73.6 °F - 66.6 °F 79% 30.01 in 7.0 mi SSW 5.8 mph - 0.02 in Rain Rain
8:15 PM 72.0 °F - 67.5 °F 86% 30.02 in 10.0 mi SW 3.5 mph - 0.01 in Rain Light Rain
8:35 PM 71.4 °F - 68.7 °F 91% 30.02 in 10.0 mi WSW 4.6 mph - 0.01 in Rain Light Rain
8:55 PM 70.9 °F - 68.9 °F 93% 30.01 in 10.0 mi Calm Calm - 0.04 in Rain Light Rain
9:15 PM 70.7 °F - 69.8 °F 97% 30.02 in 10.0 mi Calm Calm - N/A   Light Drizzle
9:35 PM 71.1 °F - 70.0 °F 96% 30.03 in 10.0 mi NE 3.5 mph - N/A Rain Light Rain
9:55 PM 70.7 °F - 70.0 °F 98% 30.02 in 10.0 mi ENE 3.5 mph - 0.01 in   Light Drizzle
10:15 PM 70.3 °F - 70.0 °F 99% 30.02 in 10.0 mi Calm Calm - N/A   Mostly Cloudy
10:35 PM 70.0 °F - 69.8 °F 99% 30.02 in 10.0 mi Calm Calm - N/A   Scattered Clouds
10:55 PM 70.3 °F - 70.0 °F 99% 30.04 in 10.0 mi Calm Calm - N/A   Scattered Clouds
11:15 PM 70.7 °F - 70.5 °F 99% 30.03 in 10.0 mi Calm Calm - N/A   Mostly Cloudy
11:35 PM 70.2 °F - 69.4 °F 98% 30.02 in 10.0 mi Calm Calm - N/A   Overcast
11:55 PM 70.3 °F - 69.8 °F 98% 30.01 in 10.0 mi Calm Calm - N/A   Mostly Cloudy